Location: Argonnex
(45.9500°N, 6.1333°E)
Time: 12:22:22
(UTC+00:00)

ATLAS 5 CENTAUR R/B - Pass Details

Date: 28 January 2023
Orbit: 460 x 1178 km, 63.3° (Epoch: 24 March)

Event Time Altitude Azimuth Distance (km) Brightness Sun altitude
Rises 17:11:41 0° 245° (WSW) 2,499 7.2 -6.8°
Reaches altitude 10° 17:13:52 10° 257° (WSW) 1,662 5.5 -7.2°
Maximum altitude 17:17:09 30° 321° (NW) 942 2.8 -7.7°
Drops below altitude 10° 17:20:50 10° 24° (NNE) 1,882 3.7 -8.3°
Enters shadow 17:22:25 - 32° (NNE) 2,483 4.2 -8.6°
